Weather in Boldyrevo

Russia / Orenburg Oblast     51°39′56″N   52°43′41″E
temp.,
°C
wind,
m/s
gust,
m/s
humid.,
%
clouds,
%
prec.,
mm/h
press.,
hPa
HPBL,
m
27 february, sat
sat2723:00−14se61195100 0.1 1016318
02:00−11sse71295100 0.7 1011431
05:00−8sse91595100 4.8 1006580
08:00−5sse71295100 2.9 1003397
11:00−1s2499100 3.6 1002141
14:00+1wsw59100100 0.1 1001352
17:00+1sw59100100 0.1 1002417
20:000sw4898100 0.4 1001372
28 february, sun
sun2823:000sw5898100 0.8 1000425
02:000wsw5898100 0.2 999419
05:00−1sw5998100 0.8 999425
08:00−3wsw5796100 0.7 1000241
11:00−9nw589498 1.1 1001323
14:00−10wnw699299 0.1 1004409
17:00−11wnw699199 0.3 1007475
20:00−13wnw499398 0.1 1010299
1 march, mon
mon123:00−16wnw479592 0.1 1012143
02:00−18wnw359684 0.0 101477
05:00−18wnw349689 0.0 101572
08:00−16wnw369691 0.1 1017147
11:00−14nw359391 0.1 1019273
14:00−13wnw459293 0.1 1020338
17:00−14nw469192 0.1 1021319
20:00−19nw34951 0.0 102337
2 march, tue
tue223:00−21nw33960 0.0 102424
02:00−22wnw23960 0.0 102320
05:00−23w23980 0.0 102320
08:00−23sw3310040 0.0 102222
11:00−19ssw479761 0.0 1020239
14:00−13ssw6994100 0.0 1017404
17:00−10ssw71294100 0.2 1014530
20:00−6ssw71495100 0.9 1011683
3 march, wed
wed323:00−3ssw71496100 2.0 1007690
02:00−2sw71296100 1.3 1004618
05:00−3sw51097100 1.9 1003408
08:00−4wsw379797 0.4 1002172
11:00−5w479486 0.5 1003252
14:00−5w579457 0.0 1003324
17:00−3wsw699478 0.1 1004543
20:00−4wnw6129199 0.3 1005446